Lexington Weather

Lexington, Massachusetts, USA

46°F
10/22/2019 2:16am 
  • Lexington Conditions: Mostly cloudy
  • Temperature: 46.4°F / 8.0°CWarmer 0.9°F than last hour.
  • Dew Point: 44.8°FIncreased 1.5°Fsince last hour.
  • Relative Humidity: 94%Increased 2.0% since last hour.
  • Wind: Calm, 10-min avg: Calm, gust: None
  • Barometer: 30.12 in Steady
  • Visibility: 9 miles
  • Rain Today: 0.00 in
  •   

Regional Weather Roundup
for Boston, MA

        
000
ASUS41 KBOX 192000
RWRBOX

REGIONAL WEATHER ROUNDUP
NATIONAL WEATHER SERVICE BOSTON/NORTON MA
400 PM EDT SAT OCT 19 2019

NOTE:  "FAIR" INDICATES FEW OR NO CLOUDS BELOW 12,000 FEET WITH NO 
SIGNIFICANT WEATHER AND/OR OBSTRUCTIONS TO VISIBILITY.

MAZALL-192100-
EASTERN MASSACHUSETTS
  
CITY           SKY/WX    TMP DP  RH WIND       PRES   REMARKS
BOSTON         FAIR      61  34  36 W7        29.98S                  
BEVERLY        FAIR      59  34  39 VRB7      29.97S                  
LAWRENCE       FAIR      58  34  40 NW8       29.99S                  
BEDFORD        FAIR      63  34  33 W8        29.96F                  
BLUE HILL      NOT AVBL                                               
NORWOOD        FAIR      62  34  35 VRB6      29.98S                  
MARSHFIELD     NOT AVBL                                               
PLYMOUTH       FAIR      58  37  45 W7        29.98F                  
TAUNTON        FAIR      60  35  39 W7        29.98S                  
NEW BEDFORD    FAIR      58  36  43 W9        29.99S                  
$$

MAZALL-192100-
CAPE COD AND THE ISLANDS
  
CITY           SKY/WX    TMP DP  RH WIND       PRES   REMARKS
FALMOUTH       SUNNY     55  36  47 NW8       30.00S                  
HYANNIS        NOT AVBL                                               
CHATHAM        NOT AVBL                                               
PROVINCETOWN   FAIR      52  38  58 NW3         N/A                   
NANTUCKET      FAIR      54  41  61 W10       30.01R                  
MARTHAS VNYRD  FAIR      55  38  52 W6        30.00S                  
$$
 
MAZALL-192100-
CENTRAL AND WESTERN MASSACHUSETTS
  
CITY           SKY/WX    TMP DP  RH WIND       PRES   REMARKS
WORCESTER      FAIR      55  34  45 NW12      29.99R                  
FITCHBURG      FAIR      60  32  34 NW10      29.99S                  
ORANGE         FAIR      59  32  36 NW5       29.99S                  
SPRINGFIELD    MOSUNNY   61  34  36 SW6       29.98S                  
WESTFIELD      FAIR      62  32  32 NW8       29.98S                  
NORTH ADAMS    FAIR      55  34  45 NW6       30.00F                  
PITTSFIELD     FAIR      54  33  45 W9        29.99F                  
$$
 
RIZALL-192100-
RHODE ISLAND
  
CITY           SKY/WX    TMP DP  RH WIND       PRES   REMARKS
PROVIDENCE     FAIR      60  36  40 W6        30.00R                  
NEWPORT        FAIR      56  41  57 SW7       29.99F                  
BLOCK ISLAND   FAIR      55  40  56 W12       30.02S                  
SMITHFIELD     FAIR     N/A N/A N/A W9        29.99S                  
WESTERLY       FAIR      59  44  57 SW10      30.01S                  
$$
 
CTZALL-192100-
CONNECTICUT
  
CITY           SKY/WX    TMP DP  RH WIND       PRES   REMARKS
BRADLEY INTL   FAIR      64  33  31 SW5       29.98F                  
HARTFORD       FAIR      62  33  33 W6        29.99S                  
BRIDGEPORT     FAIR      59  39  47 SW13      30.02S                  
DANBURY        FAIR      59  33  37 W3        30.02S                  
GROTON         NOT AVBL                                               
NEW HAVEN      FAIR      60  42  51 SW10G18   30.01S                  
CHESTER        FAIR      61  41  48 VRB6G12   30.00S                  
MERIDEN        FAIR      61  33  35 SW8       30.00S                  
WILLIMANTIC    FAIR      60  36  40 NW6       30.01S                  
OXFORD         FAIR      58  33  39 CALM      30.01S                  
$$

MEZ002-015-021-024-NHZ003-005-008-011-012-014-VTZ005-008-192100-
NORTHERN NEW ENGLAND
  
CITY           SKY/WX    TMP DP  RH WIND       PRES   REMARKS
PORTLAND ME    FAIR      58  35  42 NW6       29.95R                  
BANGOR ME      FAIR      56  35  45 NW13      29.91R                  
CONCORD NH     FAIR      59  31  34 NW9       29.97S                  
MANCHESTER NH  FAIR      60  31  33 NW8       29.96S                  
NASHUA NH      FAIR      60  32  34 W8        29.97F                  
PORTSMOUTH NH  NOT AVBL                                               
JAFFREY NH     FAIR      57  29  34 VRB5      29.98S                  
KEENE NH       FAIR      58  33  39 CALM      29.99S                  
BURLINGTON VT  FAIR      53  32  44 CALM      30.03S                  
MT. WASHINGTON MOSUNNY   28  -2  26 NW35        N/A  WCI  12          
$$

NYZ052-076-192100-
EASTERN NEW YORK
  
CITY           SKY/WX    TMP DP  RH WIND       PRES   REMARKS
ALBANY         FAIR      59  35  40 NW5       30.03S                  
NEW YORK CITY  PTSUNNY   61  35  37 VRB3      30.02F                  
$$
 
ANZALL-192100-
MARINE OBSERVATIONS
  
STATION/POSITION TIME  TEMP    WIND        PRES    VSBY  WAVE
                       AIR SEA DIR/SP/G                  HT/PER
                 (UTC) (F)     (DEG/KT/KT) (MB)    (MI)  (FT/S)
BOSTON BUOY      1850   53 57  210/  8/ 10 1014.3          1/11
BUZZARDS BAY     1900   52     240/ 11/ 14 1016.6F
NANTUCKET SOUND  1900      56              1015.8
MASS BAY-STELLWA 1904   53 56  220/ 12/ 14 1014.1F  1 7/8  1/ 3
ISLE OF SHOALS   1900   55     270/  2/  2 1014.1F
S OF BLOCK IS    1930      60                N/A           2/ 3
$$

......................KEY.........................
  SKY/WX - SKY CONDITION/PRESENT WEATHER
  TMP    - TEMPERATURE IN FAHRENHEIT
  DWPT   - DEWPOINT IN FAHRENHEIT
  RH     - RELATIVE HUMIDITY IN PERCENT
  WIND   - DIRECTION AND SPEED IN MPH
  PRES   - MEAN SEA LEVEL PRESSURE IN INCHES OF HG
  WCI    - WIND CHILL INDEX
  VSB    - VISIBILITY IN MILES
  HX     - HEAT INDEX
  TC     - TEMPERATURE IN CELSIUS
  VRB    - VARIABLE WIND DIRECTION
  N/A    - NOT AVAILABLE
  
      

Other recent Regional Weather Roundups

Tue Oct 22, 2:10am

Tue Oct 22, 2:00am

Tue Oct 22, 1:10am

Tue Oct 22, 1:00am

Tue Oct 22, 12:10am

Tue Oct 22, 12:00am

Mon Oct 21, 11:10pm

Mon Oct 21, 11:00pm

Mon Oct 21, 10:10pm

Mon Oct 21, 10:01pm

Mon Oct 21, 9:10pm

Mon Oct 21, 9:00pm

Mon Oct 21, 8:10pm

Mon Oct 21, 8:00pm

Mon Oct 21, 7:10pm

Mon Oct 21, 7:01pm

Mon Oct 21, 6:10pm

Mon Oct 21, 6:01pm

Mon Oct 21, 5:10pm

Mon Oct 21, 5:01pm

Mon Oct 21, 4:10pm

Mon Oct 21, 4:00pm

Mon Oct 21, 3:10pm

Mon Oct 21, 3:01pm

Mon Oct 21, 2:10pm

Mon Oct 21, 2:00pm

Mon Oct 21, 1:10pm

Mon Oct 21, 1:01pm

Mon Oct 21, 12:10pm

Mon Oct 21, 12:00pm

Mon Oct 21, 11:10am

Mon Oct 21, 11:00am

Mon Oct 21, 10:10am

Mon Oct 21, 10:00am

Mon Oct 21, 9:10am

Mon Oct 21, 9:00am

Mon Oct 21, 7:10am

Mon Oct 21, 7:00am

Mon Oct 21, 6:10am

Mon Oct 21, 6:00am

Mon Oct 21, 5:10am

Mon Oct 21, 5:00am

Mon Oct 21, 4:10am

Mon Oct 21, 4:00am

Mon Oct 21, 3:10am

Mon Oct 21, 3:00am

Mon Oct 21, 2:10am

Mon Oct 21, 2:01am

Mon Oct 21, 1:10am

Mon Oct 21, 1:00am

Mon Oct 21, 12:10am

Mon Oct 21, 12:00am

Sun Oct 20, 11:10pm

Sun Oct 20, 11:00pm

Sun Oct 20, 10:10pm

Sun Oct 20, 10:00pm

Sun Oct 20, 9:10pm

Sun Oct 20, 9:01pm

Sun Oct 20, 8:10pm

Sun Oct 20, 8:00pm

Sun Oct 20, 7:10pm

Sun Oct 20, 7:01pm

Sun Oct 20, 6:10pm

Sun Oct 20, 6:00pm

Sun Oct 20, 5:10pm

Sun Oct 20, 5:00pm

Sun Oct 20, 4:10pm

Sun Oct 20, 4:00pm

Sun Oct 20, 3:10pm

Sun Oct 20, 3:00pm

Sun Oct 20, 2:10pm

Sun Oct 20, 2:01pm

Sun Oct 20, 1:10pm

Sun Oct 20, 1:01pm

Sun Oct 20, 12:10pm

Sun Oct 20, 12:00pm

Sun Oct 20, 11:10am

Sun Oct 20, 11:00am

Sun Oct 20, 10:10am

Sun Oct 20, 10:00am

Sun Oct 20, 9:10am

Sun Oct 20, 9:00am

Sun Oct 20, 8:10am

Sun Oct 20, 8:00am

Sun Oct 20, 7:10am

Sun Oct 20, 7:00am

Sun Oct 20, 6:10am

Sun Oct 20, 6:00am

Sun Oct 20, 5:10am

Sun Oct 20, 5:00am

Sun Oct 20, 4:10am

Sun Oct 20, 4:00am

Sun Oct 20, 3:10am

Sun Oct 20, 3:00am

Sun Oct 20, 2:10am

Sun Oct 20, 2:00am

Sun Oct 20, 1:10am

Sun Oct 20, 1:00am

Sun Oct 20, 12:10am

Sun Oct 20, 12:00am

Sat Oct 19, 11:10pm

Sat Oct 19, 11:00pm

Sat Oct 19, 10:10pm

Sat Oct 19, 10:00pm

Sat Oct 19, 9:10pm

Sat Oct 19, 9:00pm

Sat Oct 19, 8:10pm

Sat Oct 19, 8:00pm

Sat Oct 19, 7:10pm

Sat Oct 19, 7:00pm

Sat Oct 19, 6:10pm

Sat Oct 19, 6:00pm

Sat Oct 19, 5:10pm

Sat Oct 19, 5:00pm

Sat Oct 19, 4:10pm

Sat Oct 19, 3:10pm

Sat Oct 19, 3:01pm

Sat Oct 19, 2:10pm

Sat Oct 19, 2:00pm

Sat Oct 19, 1:10pm

Sat Oct 19, 1:01pm

Sat Oct 19, 12:10pm

Sat Oct 19, 12:00pm

Sat Oct 19, 11:10am

Sat Oct 19, 11:01am

Sat Oct 19, 10:10am

Sat Oct 19, 10:00am

Sat Oct 19, 9:10am

Sat Oct 19, 9:00am

Sat Oct 19, 8:10am

Sat Oct 19, 8:00am

Sat Oct 19, 7:10am

Sat Oct 19, 7:00am

Sat Oct 19, 6:10am

Sat Oct 19, 6:00am

Sat Oct 19, 5:10am

Sat Oct 19, 5:00am

Sat Oct 19, 4:10am

Sat Oct 19, 4:00am

Sat Oct 19, 3:10am

Sat Oct 19, 3:00am

Meta data:

ID: 7f7f7399-aaf6-405f-b630-f3c9fbe6595e
Link: https://api.weather.gov/products/7f7f7399-aaf6-405f-b630-f3c9fbe6595e